Regional Weather Roundup
Issued by NWS

Home | Current Version | Previous Version | Text Only | Print | Product List | Glossary On
Versions: 1 2 3 4 5 6 7 8 9 10 11 12 13 14 15 16 17 18 19 20 21 22 23 24 25 26 27 28 29 30 31 32 33 34 35 36 37 38 39 40 41 42 43 44 45 46 47 48 49 50
000
ASUS43 KLSX 282107
RWRMO

WEATHER SUMMARY FOR MISSOURI
NATIONAL WEATHER SERVICE SPRINGFIELD MO
400 PM CDT FRI AUG 28 2015

NOTE: "FAIR" INDICATES FEW OR NO CLOUDS BELOW 12,000 FEET WITH NO
       SIGNIFICANT WEATHER AND/OR OBSTRUCTIONS TO VISIBILITY.
       CURRENT SKY AND/OR WEATHER CONDITIONS ARE NOT AVAILABLE FOR
       CHILLICOTHE AND FARMINGTON.

MOZ001>031-035>038-043-044-053-054-282200-
...NORTHERN AND WESTERN MISSOURI...

CITY           SKY/WX    TMP DP  RH WIND       PRES   REMARKS
KANSAS CTY INT PTSUNNY   80  64  58 SW20G30   29.90S
KANSAS C DTWN  MOSUNNY   82  66  58 S17G32    29.89F
LEE`S SUMMIT   PTSUNNY   76  64  66 S21G30    29.93F
ST JOSEPH      MOSUNNY   79  68  69 S13       29.88F
CHILLICOTHE      N/A     77  66  68 S8        29.92F
KIRKSVILLE     CLOUDY    73  62  68 S14G21    29.98F

$$
MOZ066>068-077>081-088>096-101>105-282200-
...SOUTHWEST MISSOURI...

CITY           SKY/WX    TMP DP  RH WIND       PRES   REMARKS
SPRINGFIELD    CLOUDY    78  63  59 SE14      30.01F
JOPLIN         CLOUDY    78  66  66 S9        29.98F

$$
MOZ032>034-039>042-045>050-055>058-069>072-282200-
...CENTRAL MISSOURI...

CITY           SKY/WX    TMP DP  RH WIND       PRES   REMARKS
COLUMBIA       CLOUDY    78  65  63 SE9       30.00F
JEFFERSON CITY CLOUDY    79  61  53 SE8       29.99F
ROLLA          PTSUNNY   79  61  53 SE12G20   30.02F
SEDALIA        LGT RAIN  75  68  78 S9        29.98F
WHITEMAN AFB   PTSUNNY   73  69  89 S7        29.95F
WARRENSBURG    CLOUDY    72  66  83 SE9       29.94F
OSAGE BEACH    CLOUDY    79  63  57 SE6       30.01F

$$
MOZ051-052-059>065-282200-
...EAST CENTRAL MISSOURI...

CITY           SKY/WX    TMP DP  RH WIND       PRES   REMARKS
ST LOUIS INTL  PTSUNNY   81  60  48 S13       30.05F
SPIRIT OF STL  PTSUNNY   80  63  55 SE3       30.03F
ST CHARLES     PTSUNNY   82  62  50 S12       30.03F

$$
MOZ072>076-082>087-097>100-106>115-282200-
...SOUTH CENTRAL AND SOUTHEAST MISSOURI...

CITY           SKY/WX    TMP DP  RH WIND       PRES   REMARKS
CAPE GIRARDEAU MOSUNNY   79  62  56 SW6       30.04F
FARMINGTON     MOSUNNY   81  61  50 S8        30.08F
POPLAR BLUFF   MOSUNNY   83  60  45 VRB3      30.02F
WEST PLAINS    MOSUNNY   80  58  46 S7        30.06F

$$



USA.gov is the U.S. government's official web portal to all federal, state and local government web resources and services.